[[{"header":{"parameterUnit":"m.s-1","parameterCategory":1,"la1":30.2991,"la2":30.254,"lo1":-89.0895,"lo2":-89.0444,"dy":0.0017,"dx":0.0017,"nx":28,"ny":28,"refTime":"2024-04-09T09:00:00:Z","depth":0,"parameterNumber":2,"parameterNumberName":"U-component_of_WINDS"},"data":[0,0,0,0,0,0,0,0,0,0,0,0,0,0,0,0,0,0,0,0,0,0,0,0,0,0,0,0,0,0,0,0,0,0,0,0,0,0,0,0,0,0,0,0,0,0,0,0,0,0,0,0,0,0,0,0,0,0,-7.2442,-7.2443,0,-7.2526,-7.2527,-7.2528,-7.245,-7.2447,-7.2444,-7.2441,-7.2529,-7.2534,-7.2539,0,0,0,0,0,0,0,0,0,0,0,0,0,-7.2216,-7.2221,-7.2442,-7.2443,-7.2444,-7.2526,-7.2527,-7.2529,-7.2451,-7.2447,-7.2443,-7.2439,-7.2527,-7.2533,-7.254,0,0,0,0,0,0,0,0,0,0,0,0,0,-7.2309,-7.2222,-7.2442,-7.2415,-7.2414,-7.2526,-7.2528,-7.2529,-7.2452,-7.2447,-7.2442,-7.2438,-7.2525,-7.2533,-7.2541,-7.2684,0,0,-7.2565,-7.2568,0,0,0,0,0,0,0,0,-7.2304,-7.2317,-7.2418,-7.2417,-7.2416,-7.2473,-7.248,-7.2581,-7.2453,-7.2437,-7.2441,-7.2435,-7.2514,-7.2523,-7.2549,-7.2688,-7.2692,-7.2565,-7.257,-7.2574,-7.2576,0,0,0,0,0,0,0,-7.2297,-7.2313,-7.2475,-7.242,-7.2418,-7.24,-7.2408,-7.2499,-7.2501,-7.2438,-7.2433,-7.2444,-7.2513,-7.2541,-7.255,-7.2693,-7.2565,-7.2572,-7.2577,-7.258,-7.2954,-7.2959,0,0,0,0,0,0,-7.2293,-7.2308,-7.2473,-7.2478,-7.2347,-7.2408,-7.2417,-7.2459,-7.25,-7.2502,-7.2448,-7.244,-7.253,-7.2541,-7.2553,-7.2722,-7.2574,-7.2581,-7.2586,-7.2949,-7.2955,-7.2961,0,0,0,0,0,0,-7.2289,-7.2309,-7.2469,-7.2392,-7.2411,-7.2417,-7.2465,-7.2464,-7.2492,-7.2507,-7.2507,-7.2476,-7.2527,-7.2542,-7.2652,-7.2724,-7.2585,-7.2592,-7.2943,-7.2951,-7.2958,-7.3063,0,0,0,0,0,0,-7.2283,-7.2308,-7.2361,-7.2393,-7.2415,-7.2566,-7.247,-7.2469,-7.2506,-7.2496,-7.2534,-7.2536,-7.2524,-7.264,-7.266,-7.2733,-7.2598,-7.2936,-7.2946,-7.2956,-7.3053,-7.3073,-7.3091,0,0,0,0,0,-7.2275,-7.2388,-7.2365,-7.2385,-7.2483,-7.257,-7.2583,-7.2567,-7.2512,-7.2566,-7.2576,-7.2535,-7.2714,-7.2652,-7.2673,-7.275,-7.2932,-7.2944,-7.2955,-7.3044,-7.3069,-7.309,0,0,0,0,0,0,-7.2364,-7.2392,-7.2366,-7.2493,-7.253,-7.2557,-7.2625,-7.2594,-7.2647,-7.2636,-7.2615,-7.2624,-7.274,-7.2756,-7.2687,-7.2891,-7.2814,-7.2831,-7.2875,-7.2899,-7.2917,-7.2909,-7.2605,0,0,0,0,0,-7.2399,-7.2468,-7.2488,-7.2598,-7.2618,-7.2619,-7.2657,-7.2641,-7.2679,-7.2694,-7.2712,-7.2751,-7.2816,-7.2859,-7.2919,-7.3056,-7.3063,-7.312,-7.3138,-7.3154,-7.3167,-7.324,-7.3265,-7.2999,-7.2999,-7.2999,0,0,-7.2471,-7.2494,-7.2539,-7.2617,-7.2643,-7.2715,-7.2632,-7.2712,-7.2765,-7.2706,-7.281,-7.2825,-7.2867,-7.2991,-7.3046,-7.3008,-7.3243,-7.3169,-7.3181,-7.3186,-7.3254,-7.328,-7.3302,-7.3007,-7.3006,-7.3004,0,0,-7.2637,-7.2663,-7.2757,-7.2786,-7.2827,-7.2827,-7.285,-7.2883,-7.289,-7.2995,-7.2952,-7.3016,-7.3129,-7.316,-7.319,-7.3372,-7.3335,-7.3393,-7.349,-7.3561,-7.3582,-7.36,-7.3663,-7.3686,-7.3407,-7.3407,-7.3407,0,-7.2721,-7.2827,-7.2809,-7.2891,-7.2926,-7.2878,-7.2973,-7.3002,-7.3062,-7.3088,-7.3045,-7.3185,-7.321,-7.334,-7.3384,-7.3412,-7.3436,-7.3386,-7.358,-7.3599,-7.3615,-7.3675,-7.3699,-7.3414,-7.3413,-7.3412,-7.3412,0,-7.2927,-7.3001,-7.3072,-7.313,-7.3174,-7.3263,-7.3259,-7.3306,-7.3288,-7.3293,-7.34,-7.3429,-7.3494,-7.3524,-7.3508,-7.3652,-7.3627,-7.3583,-7.3505,-7.3647,-7.3703,-7.3725,-7.3423,-7.342,-7.3419,-7.3417,0,0,-7.3148,-7.3197,-7.3223,-7.3249,-7.3293,-7.335,-7.3437,-7.3501,-7.354,-7.3585,-7.3656,-7.3754,-7.3713,-7.3749,-7.3736,-7.3799,-7.3938,-7.3747,-7.3747,-7.3779,-7.4097,-7.4128,-7.4154,-7.3916,-7.392,-7.3924,-7.4093,0,-7.3314,-7.3463,-7.3451,-7.3592,-7.366,-7.3617,-7.3692,-7.3728,-7.3736,-7.3795,-7.3805,-7.3873,-7.3816,-7.3836,-7.3897,-7.3908,-7.4001,-7.3897,-7.3981,-7.3984,-7.3968,-7.4183,-7.4216,-7.4373,-7.4115,-7.4118,-7.4121,0,-7.3527,-7.3577,-7.3725,-7.3759,-7.3787,-7.3855,-7.3912,-7.397,-7.401,-7.4012,-7.4052,-7.4029,-7.4117,-7.404,-7.4161,-7.409,-7.4125,-7.4136,-7.4142,-7.4146,-7.4059,-7.4191,-7.4424,-7.4446,-7.4155,-7.4153,-7.415,0,-7.367,-7.3776,-7.3878,-7.3902,-7.3944,-7.3993,-7.4013,-7.4048,-7.4088,-7.4139,-7.4164,-7.4225,-7.4258,-7.4307,-7.4301,-7.4246,-7.4424,-7.4347,-7.4426,-7.4427,-7.4462,-7.4459,-7.4701,-7.4491,-7.4491,-7.449,-7.449,0,-7.3854,-7.3946,-7.3943,-7.4005,-7.4107,-7.4093,-7.4194,-7.4209,-7.4241,-7.4306,-7.4274,-7.4336,-7.4326,-7.4388,-7.4385,-7.4485,-7.4501,-7.4504,-7.4501,-7.4505,-7.4504,-7.4524,-7.4512,-7.4497,-7.4495,-7.4494,-7.4493,0,-7.403,-7.4032,-7.4139,-7.4171,-7.4182,-7.4255,-7.4282,-7.4342,-7.4348,-7.4431,-7.4449,-7.4459,-7.4531,-7.4531,-7.4614,-7.4611,-7.4733,-7.4719,-7.4718,-7.4714,-7.4793,-7.4785,-7.5053,-7.5087,-7.4858,-7.4861,-7.4862,0,-7.4145,-7.4215,-7.4254,-7.4295,-7.4318,-7.4385,-7.4424,-7.4415,-7.4458,-7.4509,-7.4562,-7.4631,-7.4685,-7.4802,-7.4817,-7.488,-7.4866,-7.4956,-7.4875,-7.4876,-7.4863,-7.4858,-7.4864,-7.497,-7.4973,-7.4975,-7.4976,0,-7.435,-7.4347,-7.4405,-7.4465,-7.4513,-7.4559,-7.4602,-7.4637,-7.4633,-7.4683,-7.4755,-7.4797,-7.4882,-7.495,-7.5011,-7.5032,-7.5004,-7.5003,-7.5024,-7.5026,-7.5021,-7.5022,-7.4758,-7.4995,-7.4993,-7.4992,-7.4991,-7.499,-7.4497,-7.4556,-7.4593,-7.4659,-7.469,-7.4731,-7.4788,-7.4802,-7.4862,-7.4928,-7.492,-7.5001,-7.504,-7.5119,-7.5146,-7.521,-7.5178,-7.521,-7.5217,-7.5224,-7.5231,-7.5015,-7.5221,-7.5221,-7.522,-7.522,-7.522,0,-7.4696,-7.4718,-7.478,-7.484,-7.4892,-7.4862,-7.4908,-7.4953,-7.5024,-7.5064,-7.5118,-7.5201,-7.5268,-7.5289,-7.5354,-7.54,-7.5389,-7.5417,-7.5412,-7.5417,-7.5257,-7.5231,-7.5426,-7.5425,-7.5425,-7.5425,-7.5425,-7.5425,-7.4806,-7.4904,-7.4907,-7.502,-7.5042,-7.512,-7.5149,-7.5186,-7.5217,-7.5312,-7.5367,-7.538,-7.5412,-7.5479,-7.5539,-7.5544,-7.5568,-7.5601,-7.56,-7.5449,-7.5429,-7.5409,-7.5383,-7.5607,-7.5608,-7.5755,-7.5756,-7.5757]},{"header":{"parameterUnit":"m.s-1","parameterCategory":1,"la1":30.2991,"la2":30.254,"lo1":-89.0895,"lo2":-89.0444,"dy":0.0017,"dx":0.0017,"nx":28,"ny":28,"refTime":"2024-04-09T09:00:00:Z","depth":0,"parameterNumber":3,"parameterNumberName":"V-component_of_WINDS"},"data":[0,0,0,0,0,0,0,0,0,0,0,0,0,0,0,0,0,0,0,0,0,0,0,0,0,0,0,0,0,0,0,0,0,0,0,0,0,0,0,0,0,0,0,0,0,0,0,0,0,0,0,0,0,0,0,0,0,0,2.6805,2.6806,0,2.6891,2.6892,2.6893,2.6944,2.6945,2.6945,2.6945,2.7031,2.7033,2.7035,0,0,0,0,0,0,0,0,0,0,0,0,0,2.6683,2.6685,2.6805,2.6806,2.6807,2.6891,2.6892,2.6894,2.6944,2.6945,2.6945,2.6945,2.703,2.7032,2.7035,0,0,0,0,0,0,0,0,0,0,0,0,0,2.6749,2.6686,2.6805,2.6842,2.6847,2.6891,2.6892,2.6894,2.6944,2.6945,2.6945,2.6945,2.7029,2.7032,2.7035,2.7047,0,0,2.7045,2.7046,0,0,0,0,0,0,0,0,2.6745,2.6754,2.6836,2.684,2.6845,2.6907,2.6881,2.6945,2.6944,2.6907,2.6945,2.6945,2.6989,2.6996,2.7011,2.7051,2.7055,2.7045,2.7047,2.7048,2.7049,0,0,0,0,0,0,0,2.6741,2.675,2.6839,2.6837,2.6842,2.6855,2.6865,2.6893,2.6945,2.691,2.6914,2.6924,2.6992,2.7008,2.7013,2.7056,2.7045,2.7048,2.705,2.7051,2.7114,2.7114,0,0,0,0,0,0,2.673,2.6746,2.6836,2.6842,2.6795,2.6857,2.6868,2.6887,2.6945,2.6954,2.6924,2.6926,2.7002,2.701,2.7016,2.7037,2.7048,2.7051,2.7053,2.7114,2.7114,2.7114,0,0,0,0,0,0,2.6728,2.6738,2.6833,2.6795,2.6808,2.6859,2.688,2.6888,2.6905,2.6955,2.6964,2.6931,2.7003,2.7012,2.704,2.704,2.7052,2.7055,2.7115,2.7114,2.7114,2.7075,0,0,0,0,0,0,2.6724,2.6737,2.6742,2.6795,2.681,2.6855,2.688,2.689,2.691,2.6914,2.6964,2.6973,2.7004,2.7035,2.7043,2.7045,2.7058,2.7115,2.7115,2.7114,2.7077,2.7074,2.7071,0,0,0,0,0,2.6719,2.6726,2.6742,2.6752,2.6817,2.6855,2.6863,2.69,2.691,2.6916,2.6949,2.6971,2.7039,2.7038,2.7047,2.7049,2.7115,2.7115,2.7114,2.7078,2.7074,2.7071,0,0,0,0,0,0,2.667,2.6734,2.6752,2.6776,2.681,2.6863,2.6871,2.6895,2.6926,2.6928,2.6971,2.6982,2.7006,2.7031,2.7028,2.7066,2.708,2.7081,2.7049,2.7046,2.7043,2.7036,2.706,0,0,0,0,0,2.6662,2.6688,2.6742,2.6758,2.6774,2.682,2.6837,2.6863,2.69,2.6914,2.6949,2.6983,2.7012,2.703,2.706,2.7081,2.7093,2.7087,2.7084,2.7082,2.7082,2.7097,2.7096,2.7113,2.7113,2.7113,0,0,2.6645,2.6684,2.6697,2.6749,2.6778,2.6804,2.6831,2.6857,2.6876,2.6918,2.6947,2.6974,2.7015,2.704,2.7053,2.7061,2.7081,2.7081,2.7079,2.7081,2.7097,2.7095,2.7094,2.7113,2.7113,2.7113,0,0,2.6629,2.666,2.6678,2.6707,2.6752,2.6783,2.6787,2.6839,2.6858,2.6889,2.6921,2.6945,2.6994,2.7023,2.7044,2.7041,2.7064,2.705,2.7034,2.7049,2.7047,2.7046,2.7047,2.7046,2.705,2.705,2.705,0,2.6602,2.6643,2.6683,2.6708,2.6731,2.6771,2.679,2.6817,2.6868,2.6883,2.6892,2.6957,2.6987,2.702,2.702,2.7035,2.7042,2.7044,2.7044,2.7044,2.7043,2.7044,2.7044,2.7048,2.7048,2.7049,2.7049,0,2.6609,2.6636,2.6645,2.6696,2.672,2.6741,2.6786,2.6805,2.683,2.686,2.6891,2.693,2.6969,2.6979,2.7002,2.7016,2.702,2.7036,2.7051,2.7039,2.7041,2.7041,2.7045,2.7046,2.7047,2.7047,0,0,2.6561,2.6637,2.6639,2.6664,2.6718,2.674,2.6764,2.6804,2.682,2.6855,2.6877,2.6919,2.6935,2.6959,2.6986,2.6999,2.6996,2.7013,2.7015,2.701,2.7016,2.7004,2.7004,2.7012,2.7012,2.7012,2.7013,0,2.6552,2.6598,2.6637,2.6669,2.6696,2.6736,2.6758,2.6793,2.6823,2.685,2.6882,2.6912,2.693,2.6945,2.6959,2.6993,2.6998,2.6994,2.7033,2.7033,2.7021,2.7005,2.6991,2.699,2.7014,2.7014,2.7014,0,2.6548,2.6584,2.6618,2.6672,2.6685,2.6703,2.6745,2.677,2.6812,2.6833,2.6861,2.689,2.6918,2.6931,2.697,2.6966,2.6985,2.7004,2.7005,2.701,2.7023,2.701,2.6991,2.6991,2.7015,2.7015,2.7015,0,2.6511,2.6568,2.6597,2.6616,2.6679,2.6692,2.6719,2.6761,2.6783,2.6819,2.6834,2.6872,2.6893,2.6922,2.6961,2.6966,2.6997,2.7012,2.7015,2.7014,2.7019,2.7018,2.7004,2.703,2.703,2.703,2.703,0,2.6498,2.6518,2.6581,2.6599,2.6623,2.6668,2.669,2.6721,2.6759,2.6783,2.682,2.6842,2.6892,2.6921,2.6951,2.698,2.6989,2.7007,2.7015,2.7004,2.7001,2.7016,2.7017,2.7031,2.703,2.703,2.703,0,2.646,2.6503,2.6538,2.6596,2.6611,2.6626,2.6676,2.6695,2.6728,2.6759,2.6768,2.6819,2.6855,2.6897,2.6945,2.6966,2.6993,2.7004,2.6979,2.6984,2.6985,2.6984,2.6979,2.6981,2.7005,2.7005,2.7005,0,2.6449,2.6465,2.6526,2.6546,2.6572,2.6603,2.6627,2.6673,2.6696,2.6747,2.676,2.6799,2.6833,2.6888,2.6929,2.6967,2.698,2.6975,2.6985,2.6975,2.6981,2.698,2.6982,2.6972,2.6972,2.6971,2.6971,0,2.6424,2.6446,2.6479,2.6521,2.6549,2.6583,2.6619,2.6634,2.6687,2.6711,2.6749,2.6775,2.6827,2.6865,2.6909,2.6937,2.6963,2.6968,2.6971,2.696,2.6945,2.6954,2.6972,2.6968,2.6968,2.6968,2.6968,2.6969,2.64,2.6418,2.6464,2.6501,2.6533,2.6567,2.6589,2.6625,2.6658,2.6704,2.6729,2.6767,2.6811,2.6873,2.69,2.693,2.6939,2.6943,2.6944,2.6944,2.6942,2.694,2.6938,2.6938,2.6938,2.6939,2.6939,0,2.6378,2.6411,2.6444,2.6495,2.6525,2.6549,2.6591,2.6614,2.6647,2.6686,2.6719,2.6764,2.6802,2.6847,2.6889,2.6904,2.6918,2.6914,2.6913,2.6919,2.6931,2.6925,2.6902,2.6902,2.6902,2.6902,2.6902,2.6902,2.637,2.6402,2.643,2.6479,2.6511,2.655,2.6572,2.6604,2.6636,2.6684,2.6717,2.6747,2.6789,2.6834,2.6871,2.6883,2.6897,2.689,2.6905,2.6915,2.6918,2.6921,2.6916,2.6892,2.6892,2.6892,2.6892,2.6892]}]]